Location: Goathead Hill Observatory
(46.4083°N, 105.8406°W)
Time: 12:26:15
(UTC-06:00)

ISS - Visible Passes

Search period start: 23 September 2018 00:00
Search period end: 03 October 2018 00:00
Orbit: 403 x 408 km, 51.6° (Epoch: 23 September)

Date Brightness Start Highest point End Pass type
(mag) Time Alt. Az. Time Alt. Az. Time Alt. Az.
23 Sep -3.7 20:52:57 10° WSW 20:55:53 69° WSW 20:55:53 69° WSW visible
24 Sep -3.7 20:01:09 10° SW 20:04:24 54° SSE 20:06:23 20° ENE visible
24 Sep -1.1 21:37:50 10° W 21:39:04 20° WNW 21:39:04 20° WNW visible
25 Sep -3.2 20:45:45 10° W 20:48:59 53° NNW 20:49:25 48° NNE visible
26 Sep -3.7 19:53:43 10° WSW 19:57:01 78° NNW 19:59:39 15° ENE visible
26 Sep -1.2 21:30:49 10° WNW 21:32:20 22° NW 21:32:20 22° NW visible
27 Sep -2.6 20:38:40 10° W 20:41:46 37° NNW 20:42:29 32° NNE visible
28 Sep -3.0 19:46:31 10° W 19:49:42 47° NNW 19:52:33 12° ENE visible
28 Sep -1.3 21:23:40 10° WNW 21:25:13 22° NW 21:25:13 22° NW visible
29 Sep -2.5 20:31:33 10° WNW 20:34:33 31° N 20:35:15 28° NNE visible
30 Sep -2.5 19:39:22 10° WNW 19:42:26 35° N 19:45:14 12° ENE visible
30 Sep -1.4 21:16:21 10° WNW 21:17:54 22° NW 21:17:54 22° NW visible
01 Oct -2.6 20:24:18 10° WNW 20:27:19 32° N 20:27:52 30° NNE visible
02 Oct -2.4 19:32:09 10° WNW 19:35:09 31° N 19:37:49 12° ENE visible
02 Oct -1.5 21:08:52 10° WNW 21:10:28 25° NW 21:10:28 25° NW visible
